This is the latest recevied weather packets stored in our database for station/object IA5FYI-13. If no packets are shown the sender has not sent any weather packets the latest 10 day(s).
| Time | Temp. | Humidity | Pressure | Rain* | Wind** | Luminosity | Snow |
|---|---|---|---|---|---|---|---|
| 1778021112 | 17.78° C | 91% | 1009.5 hPa | 21.08 mm | - | - | - |
| 1778020813 | 17.78° C | 91% | 1009.8 hPa | 14.73 mm | - | - | - |
| 1778020510 | 17.22° C | 91% | 1009.8 hPa | 7.11 mm | - | - | - |
| 1778020222 | 17.78° C | 91% | 1010.2 hPa | 4.06 mm | - | - | - |
| 1778019909 | 17.78° C | 91% | 1010.2 hPa | 2.54 mm | - | - | - |
| 1778019613 | 17.78° C | 91% | 1010.2 hPa | 2.03 mm | - | - | - |
| 1778019313 | 17.78° C | 91% | 1010.2 hPa | 2.03 mm | - | - | - |
| 1778019014 | 17.78° C | 92% | 1010.2 hPa | 0.76 mm | - | - | - |
| 1778018709 | 17.78° C | 92% | 1010.2 hPa | 0.51 mm | - | - | - |
| 1778018437 | 17.78° C | 92% | 1010.2 hPa | 5.59 mm | - | - | - |
| 1778018109 | 17.78° C | 92% | 1010.2 hPa | 4.57 mm | - | - | - |
| 1778017813 | 17.78° C | 92% | 1010.2 hPa | 4.57 mm | - | - | - |
| 1778017513 | 17.78° C | 93% | 1010.8 hPa | 3.05 mm | - | - | - |
| 1778017213 | 17.78° C | 93% | 1010.8 hPa | 2.54 mm | - | - | - |
| 1778016909 | 17.78° C | 93% | 1010.5 hPa | 2.54 mm | - | - | - |
| 1778016625 | 17.78° C | 93% | 1010.8 hPa | 2.54 mm | - | - | - |
| 1778016309 | 17.78° C | 93% | 1010.8 hPa | 2.54 mm | - | - | - |
| 1778016013 | 17.78° C | 93% | 1010.8 hPa | 2.54 mm | - | - | - |
| 1778015712 | 17.78° C | 93% | 1011.2 hPa | 2.03 mm | - | - | - |
| 1778015413 | 17.78° C | 93% | 1010.8 hPa | 0.25 mm | - | - | - |
| 1778015110 | 17.78° C | 93% | 1011.2 hPa | 0 mm | - | - | - |
| 1778014509 | 17.78° C | 93% | 1011.2 hPa | 8.38 mm | - | - | - |
| 1778014214 | 17.78° C | 93% | 1011.2 hPa | 7.62 mm | - | - | - |
| 1778013613 | 17.78° C | 93% | 1010.8 hPa | 7.62 mm | - | - | - |
| 1778013310 | 17.78° C | 92% | 1011.2 hPa | 7.62 mm | - | - | - |
* Rain latest hour (hover to see other rain measurements)
** Current wind speed in m/s (hover to see current wind gust speed)